Weather Roundup
Issued by NWS Springfield, MO

Home | Current Version | Previous Version | Text Only | Print | Product List | Glossary On
Versions: 1 2 3 4 5 6 7 8 9 10 11 12 13 14 15 16 17 18 19 20 21 22 23 24 25 26 27 28 29 30 31 32 33 34 35 36 37 38 39 40 41 42 43 44 45 46 47 48 49 50
000
NZUS99 KSGF 250407
HRRSGF

HOURLY WEATHER
NATIONAL WEATHER SERVICE SPRINGFIELD MO
1100 PM CDT SAT SEP 24 2016

......SGF CWA......

CITY           SKY/WX    TMP DP  RH WIND       PRES   REMARKS
SPRINGFIELD    CLEAR     76  67  73 SE8       30.04F
JOPLIN         PTCLDY    77  68  73 SE10        N/A
WEST PLAINS    CLEAR     69  66  90 CALM      30.10S
ROLLA          CLEAR     73  68  84 SE7       30.06R
OSAGE BEACH    CLEAR     74  69  85 SE3       30.05S
BRANSON        CLEAR     73  68  83 SE5       30.08S

......SURROUNDING SGF CWA......

CITY           SKY/WX    TMP DP  RH WIND       PRES   REMARKS
CHANUTE        LGT RAIN  69  66  90 NW8       30.02F
PARSONS        CLOUDY    71  66  84 NW6       30.04R
COFFEYVILLE    CLOUDY    71  67  87 W9        30.05R
EMPORIA        LGT RAIN  67  66  97 SE9       30.00S
GROVE OK       CLOUDY    73  68  83 SE3       30.01F
ROGERS AR      CLEAR     74  70  87 SE7       30.06S
SILOAM SPRINGS CLEAR    N/A N/A N/A SE6         N/A
HARRISON AR    CLEAR     73  68  84 S5        30.08F
NEAR YELLVILLE CLEAR     72  66  83 CALM      30.03S

......KANSAS AND MISSOURI......

CITY           SKY/WX    TMP DP  RH WIND       PRES   REMARKS
KANSAS CTY INT CLOUDY    69  66  90 NE6       30.00S
DOWNTOWN KC    CLOUDY    74  67  78 N8        29.98S
COLUMBIA       CLEAR     75  69  81 SE6       30.05R
SEDALIA        CLOUDY    76  70  82 SE8       30.03R
ST JOSEPH      CLOUDY    69  68  96 E3        29.99S
ST LOUIS       CLEAR     81  67  62 SE7       30.05S
SPIRIT OF STL  CLEAR     71  70  96 CALM      30.04R
KIRKSVILLE     MOCLDY    74  68  81 S6        30.04S
WICHITA        CLOUDY    67  67 100 SE8       29.97R
TOPEKA         RAIN      68  67  96 CALM      30.02F FOG
OLATHE         CLOUDY    75  68  78 N3        29.99S

......TENNESSEE......

CITY           SKY/WX    TMP DP  RH WIND       PRES   REMARKS
MEMPHIS        PTCLDY    83  65  54 E8        30.03R
NASHVILLE      CLEAR     73  65  75 CALM      30.07S

......ARKANSAS.......

CITY           SKY/WX    TMP DP  RH WIND       PRES   REMARKS
FAYETTEVILLE   CLEAR     67  67 100 CALM      30.06S
FT SMITH       CLEAR     77  66  68 E5        30.00S
LITTLE ROCK    PTCLDY    79  71  76 CALM      30.02S

......OKLAHOMA.......

CITY           SKY/WX    TMP DP  RH WIND       PRES   REMARKS
TULSA          LGT RAIN  74  67  78 NW14      30.01R
PONCA CITY     CLOUDY    68  66  93 SE8       29.98R
MCALESTER      CLOUDY    76  67  73 SE5       30.00R
OKLAHOMA CITY  CLOUDY    71  68  90 SW12G21   29.99R THUNDER

......IOWA............

CITY           SKY/WX    TMP DP  RH WIND       PRES   REMARKS
DES MOINES     TSTM      70  68  93 S15G21    30.03R FOG
QUAD CITIES    CLEAR     71  66  84 E7        30.06R

......ILLINOIS........

CITY           SKY/WX    TMP DP  RH WIND       PRES   REMARKS
QUINCY         CLEAR     75  66  73 S7        30.04S
CHICAGO        CLEAR     69  64  84 E8        30.13S




USA.gov is the U.S. government's official web portal to all federal, state and local government web resources and services.